Terug naar catalogus

COSMOS 2407

ActiefNavigatiePO
NORAD 28380·PAYLOAD·🇷🇺 Russia

Gelanceerd Jul 22, 2004 vanaf Plesetsk Cosmodrome

Loading…

Volgende Passages (komende 24 uur)

TLE

VersSource: Space-Track

Epoch: Sep 14, 2026, 19:05 UTC

1 28380U 04028A   26257.79573741  .00000062  00000-0  47556-4 0  9999
2 28380  82.9648   8.4566 0039192   3.8293 160.6213 13.76340242112205

Volg COSMOS 2407 in realtime met AllMySat

Download on the App Store